NOAA NWS Hourly Roundups by Site

Regional Weather Roundup for Baltimore MD/Washington, DC

To Select Another Site Choose from List

Select Site:  

000
ASUS41 KLWX 232012
RWRLWX

REGIONAL WEATHER ROUNDUP
NATIONAL WEATHER SERVICE BALTIMORE MD/WASHINGTON DC
400 PM EDT WED JUN 23 2021

Note: "FAIR" indicates few or no clouds below 12,000 feet
with no significant weather and/or obstructions to visibility.
 TC=TEMPERATURE CELSIUS

 * =Non NWS site. Station does not report precipitation (e.g. rain,
    snow, etc.), thunder, or fog.

DCZ001-MDZ009-015-VAZ040>042-051-053>054-232100-
WASHINGTON METRO

CITY           SKY/WX    TMP DP  RH WIND       PRES   REMARKS
WASHINGTON NAT MOSUNNY   78  44  29 VRB3      30.24S
DULLES         MOSUNNY   75  44  33 W3        30.24S
ANDREWS AFB    MOSUNNY   72  45  36 NE7       30.22F
FT BELVOIR     SUNNY     75  44  32 SW5       30.23F
QUANTICO       SUNNY     77  45  32 VRB5      30.24F
COLLEGE PARK*  SUNNY     74  39  27 NE8       30.23S
LEESBURG*      MOSUNNY   72  45  37 E3        30.26S
MANASSAS*      PTSUNNY   78  46  32 VRB5      30.24F
GAITHERSBURG*  MOSUNNY   74  46  36 VRB3      30.26S

$$

MDZ006>007-011-014-232100-
BALTIMORE METRO

CITY           SKY/WX    TMP DP  RH WIND       PRES   REMARKS
BWI AIRPORT    MOSUNNY   76  44  32 S5        30.23S
MARTIN STATE   MOSUNNY   73  52  46 SE8       30.25F
ANNAPOLIS      SUNNY     72  50  45 SE10      30.24F
ABERDEEN*      MOSUNNY   74  52  45 S7        30.22S
FORT MEADE*    MOSUNNY  N/A N/A N/A CALM      30.26S

$$

MDZ012-015-019>023-232100-
MARYLAND EASTERN SHORE

CITY           SKY/WX    TMP DP  RH WIND       PRES   REMARKS
OCEAN CITY     SUNNY     71  50  47 E9        30.25S
SALISBURY      MOSUNNY   76  48  37 E6        30.23S
CAMBRIDGE*     SUNNY     73  46  38 NW3       30.24F
EASTON*        SUNNY     75  45  33 CALM      30.28S

$$

MDZ017>025-232100-
SOUTHERN MARYLAND

CITY           SKY/WX    TMP DP  RH WIND       PRES   REMARKS
PATUXENT RIVER MOSUNNY   75  49  39 CALM      30.24F
ST INIGOES     SUNNY     77  48  35 CALM      30.23F
LEONARDTOWN*   SUNNY     70  43  37 N3        30.26F

$$

MDZ003>005-232100-
NORTH CENTRAL MARYLAND

CITY           SKY/WX    TMP DP  RH WIND       PRES   REMARKS
FREDERICK*     PTSUNNY   77  46  33 CALM      30.24S
HAGERSTOWN APT MOSUNNY   74  45  35 VRB3      30.23F
WESTMINSTER*   SUNNY     75  45  33 CALM      30.24F

$$

MDZ501>502-232100-
WESTERN MARYLAND

CITY           SKY/WX    TMP DP  RH WIND       PRES   REMARKS
OAKLAND*       SUNNY     63  41  45 CALM      30.28S
CUMBERLAND*    SUNNY     76  46  35 S6        30.26F

$$

VAZ025>031-232100-
SHENANDOAH VALLEY

CITY           SKY/WX    TMP DP  RH WIND       PRES   REMARKS
WINCHESTER*    MOSUNNY   70  45  40 CALM      30.23F
FRONT ROYAL*   MOSUNNY   73  46  38 CALM      30.24F
LURAY*         MOSUNNY   73  41  31 E6        30.24F
NEW MARKET*    MOSUNNY   74  43  32 NE7       30.23F
STAUNTON*      MOSUNNY   73  42  32 NE3       30.27S
WAYNESBORO*    MOSUNNY   71  47  41 SW5       30.26S

$$

WVZ021-048>050-054>055-232100-
EASTERN WEST VIRGINIA PANHANDLE

CITY           SKY/WX    TMP DP  RH WIND       PRES   REMARKS
MARTINSBURG    MOSUNNY   74  45  35 VRB5      30.22F
PETERSBURG*    SUNNY     76  46  33 E5        30.23F

$$

VAZ036>039-050-232100-
CENTRAL FOOTHILLS

CITY           SKY/WX    TMP DP  RH WIND       PRES   REMARKS
CHARLOTTESVILL SUNNY     76  45  33 CALM      30.24F
CULPEPER*      MOSUNNY   76  45  32 N5        30.25S
ORANGE*        MOSUNNY   72  45  37 SE7       30.25S
GORDONSVILLE*  MOSUNNY   74  47  38 E5        30.23F
WARRENTON*     MOSUNNY   77  37  23 N3        30.24F

$$

VAZ055>057-232100-
NORTH AND CENTRAL PIEDMONT

CITY           SKY/WX    TMP DP  RH WIND       PRES   REMARKS
FREDERICKSBRG* MOSUNNY   75  44  32 S6        30.23S
STAFFORD*      MOSUNNY   76  43  30 CALM      30.28F

$$

NCZ024-NYZ072-PAZ021-071-VAZ022-071-232100-
OTHER REGIONAL OBSERVATIONS

CITY           SKY/WX    TMP DP  RH WIND       PRES   REMARKS
NEW YORK CITY  MOSUNNY   72  46  39 W6        30.22S
PHILADELPHIA   MOSUNNY   75  45  34 N8        30.22F
PITTSBURGH     MOSUNNY   74  44  34 VRB3      30.21F
ROANOKE        MOSUNNY   74  50  42 E8        30.25S
RICHMOND       MOSUNNY   77  48  35 NE7       30.23F
RALEIGH        PTSUNNY   77  57  50 NE8       30.20S

$$

ANZ530>537-232100-
MARINE OBSERVATIONS

STATION/POSITION TIME  TEMP    WIND        PRES
                       AIR SEA DIR/SP/G
                 (UTC) (F)     (DEG/KT/KT) (MB)
THOMAS PT LIGHT  2000   70 74   40/  5/  7 1025.2F
TOLCHESTER       1930   72 75  280/  3/  3 1024.2F
GOOSES REEF      1954   68 76  340/  6/  8 1026.0F
COVE POINT       1924   68     300/  8/ 11 1024.4
BALT HARBOR      1930   71 75  170/  8/ 11 1023.5F
BALT KEY BRIDGE  1924   70     130/  9/ 12 1024.0
WASH DC CHANNEL  1930   76 78   CALM  /  5 1024.0S
DAHLGREN         1930   73 80  120/  3/  4 1023.6F
LEWISETTA        1930   70 75  140/  3/  4 1024.5F
SOLOMONS ISLAND  1930   70 77  150/  3/  3 1024.2F
PINEY POINT      1930          190/  6/  9   N/A
CAMBRIDGE PIER   1930   72 78  320/  1/  5 1024.2R
BISHOPS HEAD     1930   70 77  290/ 10/ 12 1024.1S
CHESAPEAKE CITY  1930   73 78   CALM  /  3 1023.8S

$$



 

View Past Reports for Baltimore MD/Washington, DC.

Products Courtesy of NOAA-NWS
NWS Information Parsing Script by Ken True at Saratoga Weather - Script by SE Lincoln Weather.

canadians